CW9206 Weather Reports


time (UTC)temp
C
wind
direction
speed
KPH
gust
KPH
rain 1hr
cm
rain 24hr
cm
rain mn
cm
humidity
%
barometer
mb
20260510095243 12 332 0.0 0.0 0.00 0.00 0.00 13 1012.5
20260510094744 12 332 0.0 0.0 0.00 0.00 0.00 13 1012.5
20260510094243 12 331 0.0 0.0 0.00 0.00 0.00 13 1012.5
20260510093744 12 332 0.0 0.0 0.00 0.00 0.00 13 1012.6
20260510093244 12 332 0.0 0.0 0.00 0.00 0.00 13 1012.6
20260510092743 12 332 0.0 0.0 0.00 0.00 0.00 13 1012.6
20260510092244 12 331 0.0 0.0 0.00 0.00 0.00 13 1012.6
20260510091743 12 331 0.0 0.0 0.00 0.00 0.00 13 1012.7
20260510091244 12 332 0.0 0.0 0.00 0.00 0.00 13 1012.7
20260510090743 12 332 0.0 0.0 0.00 0.00 0.00 13 1012.7
20260510090244 12 332 0.0 0.0 0.00 0.00 0.00 13 1012.7
20260510085743 12 332 0.0 0.0 0.00 0.00 0.00 13 1012.7
20260510085244 12 332 0.0 0.0 0.00 0.00 0.00 13 1012.6
20260510084743 12 331 0.0 0.0 0.00 0.00 0.00 13 1012.7
20260510084244 12 331 0.0 0.0 0.00 0.00 0.00 13 1012.8
20260510082744 12 331 0.0 0.0 0.00 0.00 0.00 13 1012.8
20260510082243 12 332 0.0 0.0 0.00 0.00 0.00 13 1012.8
20260510081243 12 332 0.0 0.0 0.00 0.00 0.00 13 1012.9
20260510080744 12 331 0.0 0.0 0.00 0.00 0.00 13 1012.9
20260510075743 12 332 0.0 0.0 0.00 0.00 0.00 13 1013.0
20260510074743 12 331 0.0 0.0 0.00 0.00 0.00 13 1013.0
20260510074243 12 332 0.0 0.0 0.00 0.00 0.00 13 1013.1
20260510073743 12 332 0.0 0.0 0.00 0.00 0.00 13 1013.1
20260510072743 12 332 0.0 0.0 0.00 0.00 0.00 13 1013.2
20260510072244 12 332 0.0 0.0 0.00 0.00 0.00 13 1013.1
20260510071243 12 331 0.0 0.0 0.00 0.00 0.00 13 1013.0
20260510070244 12 332 0.0 0.0 0.00 0.00 0.00 13 1013.2
20260510065743 12 332 0.0 1.6 0.00 0.00 0.00 13 1013.0
20260510065243 12 331 0.0 1.6 0.00 0.00 0.00 12 1013.0
20260510064743 12 332 0.0 0.0 0.00 0.00 0.00 12 1013.0
20260510064244 12 332 0.0 3.2 0.00 0.00 0.00 12 1013.0
20260510063743 12 332 0.0 4.8 0.00 0.00 0.00 12 1013.0
20260510063244 12 331 0.0 4.8 0.00 0.00 0.00 12 1012.9
20260510062743 12 332 3.2 3.2 0.00 0.00 0.00 12 1012.9
20260510061744 12 332 0.0 0.0 0.00 0.00 0.00 12 1013.0
20260510061243 12 331 0.0 0.0 0.00 0.00 0.00 12 1012.9
20260510060243 12 332 0.0 0.0 0.00 0.00 0.00 12 1012.9
20260510055744 12 331 0.0 0.0 0.00 0.00 0.00 12 1012.9
20260510055243 12 331 0.0 0.0 0.00 0.00 0.00 12 1012.9
20260510054743 12 332 0.0 0.0 0.00 0.00 0.00 12 1012.9
20260510054243 12 332 0.0 0.0 0.00 0.00 0.00 12 1012.9
20260510053743 12 331 0.0 0.0 0.00 0.00 0.00 12 1012.9
20260510053243 12 332 0.0 0.0 0.00 0.00 0.00 13 1012.9
20260510052744 12 332 0.0 0.0 0.00 0.00 0.00 13 1012.9
20260510052243 12 331 0.0 0.0 0.00 0.00 0.00 13 1013.0
20260510051743 12 331 0.0 0.0 0.00 0.00 0.00 13 1012.9
20260510051243 12 332 0.0 0.0 0.00 0.00 0.00 13 1012.8
20260510050743 12 332 0.0 0.0 0.00 0.00 0.00 13 1012.8
20260510050243 12 332 0.0 0.0 0.00 0.00 0.00 13 1013.0
20260510045743 12 332 0.0 0.0 0.00 0.00 0.00 13 1012.7
20260510045243 12 332 0.0 0.0 0.00 0.00 0.00 13 1012.6
20260510044243 12 331 0.0 0.0 0.00 0.00 0.00 13 1012.5
20260510043243 12 332 0.0 4.8 0.00 0.00 0.00 13 1012.5
20260510042243 12 331 0.0 6.4 0.00 0.00 0.00 14 1012.5
20260510041243 13 332 3.2 9.7 0.00 0.00 0.00 14 1012.6
20260510040743 13 331 0.0 0.0 0.00 0.00 0.00 14 1012.4
20260510040243 13 332 0.0 4.8 0.00 0.00 0.00 14 1012.4
20260510035743 13 332 0.0 8.0 0.00 0.00 0.00 15 1012.1
20260510035243 13 332 0.0 9.7 0.00 0.00 0.00 15 1012.0
20260510034743 13 331 0.0 9.7 0.00 0.00 0.00 15 1012.0
20260510033743 13 333 8.0 8.0 0.00 0.00 0.00 17 1011.9
20260510033243 13 333 0.0 9.7 0.00 0.00 0.00 17 1011.8
20260510032743 13 334 0.0 9.7 0.00 0.00 0.00 18 1011.7
20260510031743 13 267 3.2 11.3 0.00 0.00 0.00 20 1011.5
20260510031243 13 304 1.6 8.0 0.00 0.00 0.00 22 1011.5
20260510030743 13 304 0.0 6.4 0.00 0.00 0.00 22 1011.6
20260510030243 13 305 0.0 6.4 0.00 0.00 0.00 24 1011.5
20260510025743 13 294 0.0 11.3 0.00 0.00 0.00 24 1011.4
20260510025243 14 292 1.6 11.3 0.00 0.00 0.00 25 1011.3
20260510024743 14 269 0.0 9.7 0.00 0.00 0.00 26 1011.2
20260510024244 14 261 1.6 11.3 0.00 0.00 0.00 27 1011.3
20260510023743 15 319 3.2 11.3 0.00 0.00 0.00 28 1011.2
20260510023243 15 287 4.8 8.0 0.00 0.00 0.00 29 1011.2
20260510022743 15 236 0.0 8.0 0.00 0.00 0.00 30 1011.2
20260510022243 15 288 3.2 11.3 0.00 0.00 0.00 31 1011.2
20260510021743 15 288 0.0 14.5 0.00 0.00 0.00 33 1011.1
20260510021243 15 257 0.0 14.5 0.00 0.00 0.00 35 1011.1
20260510020744 16 255 4.8 19.3 0.00 0.00 0.00 37 1011.0
20260510015743 16 248 8.0 17.7 0.00 0.00 0.00 41 1011.0
20260510015243 17 281 8.0 16.1 0.00 0.00 0.00 43 1011.1
20260510013243 18 306 4.8 14.5 0.00 0.00 0.00 46 1010.9
20260510012743 19 281 9.7 19.3 0.00 0.00 0.00 47 1011.0
20260510012243 19 308 1.6 19.3 0.00 0.00 0.00 47 1011.0
20260510011744 20 281 19.3 19.3 0.00 0.00 0.00 47 1011.1
20260510011243 20 221 3.2 17.7 0.00 0.00 0.00 47 1011.0
20260510010244 20 250 3.2 17.7 0.00 0.00 0.00 47 1011.1
20260510005743 20 330 1.6 17.7 0.00 0.00 0.00 47 1011.1
20260510005243 21 242 3.2 19.3 0.00 0.00 0.00 47 1011.1
20260510004742 21 306 11.3 19.3 0.00 0.00 0.00 47 1011.1
20260510003743 21 261 0.0 16.1 0.00 0.00 0.00 47 1011.0
20260510003243 22 291 8.0 19.3 0.00 0.00 0.00 47 1011.1
20260510002743 22 285 3.2 19.3 0.00 0.00 0.00 46 1011.0
20260510002243 22 284 4.8 16.1 0.00 0.00 0.00 46 1011.0
20260510001244 22 304 0.0 16.1 0.00 0.00 0.00 46 1010.9
20260510000243 22 314 3.2 17.7 0.00 0.00 0.00 45 1010.9
20260509235743 23 286 6.4 14.5 0.00 0.00 0.00 45 1011.0
20260509235243 23 312 4.8 14.5 0.00 0.00 0.00 45 1011.0
20260509234743 23 268 1.6 16.1 0.00 0.00 0.00 45 1011.1
20260509233744 23 309 1.6 17.7 0.00 0.00 0.00 45 1011.1
20260509233243 23 333 6.4 16.1 0.00 0.00 0.00 45 1011.2
20260509232743 23 260 0.0 20.9 0.00 0.00 0.00 45 1011.2
20260509232242 23 267 8.0 20.9 0.00 0.00 0.00 44 1011.2
20260509231743 23 327 17.7 17.7 0.00 0.00 0.00 44 1011.2
20260509231242 23 286 3.2 17.7 0.00 0.00 0.00 44 1011.1
20260509230742 23 267 0.0 16.1 0.00 0.00 0.00 44 1011.2
20260509230242 24 235 0.0 17.7 0.00 0.00 0.00 44 1011.2
20260509225742 24 277 1.6 20.9 0.00 0.00 0.00 44 1011.2
20260509225243 24 279 3.2 20.9 0.00 0.00 0.00 44 1011.2
20260509224743 25 346 3.2 17.7 0.00 0.00 0.00 43 1011.2
20260509224243 25 320 0.0 17.7 0.00 0.00 0.00 43 1011.2
20260509223743 25 269 6.4 22.5 0.00 0.00 0.00 43 1011.2
20260509223243 25 137 4.8 22.5 0.00 0.00 0.00 43 1011.3
20260509222742 25 269 11.3 16.1 0.00 0.00 0.00 43 1011.2
20260509222242 25 229 1.6 16.1 0.00 0.00 0.00 43 1011.2
20260509221743 25 293 8.0 22.5 0.00 0.00 0.00 43 1011.3
20260509221243 25 271 4.8 22.5 0.00 0.00 0.00 43 1011.4
20260509220742 25 288 8.0 22.5 0.00 0.00 0.00 42 1011.4
20260509220242 25 319 4.8 19.3 0.00 0.00 0.00 42 1011.4
20260509215743 26 313 4.8 24.1 0.00 0.00 0.00 42 1011.5
20260509215243 26 304 6.4 24.1 0.00 0.00 0.00 41 1011.4
20260509214743 26 251 3.2 17.7 0.00 0.00 0.00 41 1011.5
20260509214242 26 298 12.9 20.9 0.00 0.00 0.00 40 1011.5
20260509213743 26 343 9.7 24.1 0.00 0.00 0.00 40 1011.5
20260509213242 26 306 8.0 24.1 0.00 0.00 0.00 40 1011.6
20260509212743 26 321 4.8 17.7 0.00 0.00 0.00 40 1011.6
20260509211742 26 303 8.0 19.3 0.00 0.00 0.00 40 1011.7
20260509211242 26 272 0.0 19.3 0.00 0.00 0.00 40 1011.7
20260509210742 26 298 4.8 14.5 0.00 0.00 0.00 40 1011.7
20260509205743 26 281 3.2 19.3 0.00 0.00 0.00 39 1011.9
20260509205242 26 265 3.2 19.3 0.00 0.00 0.00 39 1012.0
20260509204743 26 275 4.8 11.3 0.00 0.00 0.00 39 1012.0
20260509204243 26 254 1.6 11.3 0.00 0.00 0.00 39 1012.0
20260509203743 26 311 1.6 11.3 0.00 0.00 0.00 39 1012.0
20260509202742 26 312 4.8 9.7 0.00 0.00 0.00 38 1012.1
20260509202243 26 287 3.2 9.7 0.00 0.00 0.00 38 1012.2
20260509201743 25 286 3.2 11.3 0.00 0.00 0.00 38 1012.3
20260509201243 25 249 0.0 11.3 0.00 0.00 0.00 38 1012.3
20260509200742 25 290 0.0 11.3 0.00 0.00 0.00 37 1012.3
20260509200243 25 291 6.4 12.9 0.00 0.00 0.00 37 1012.3
20260509195742 25 323 0.0 12.9 0.00 0.00 0.00 37 1012.4
20260509195242 25 313 0.0 16.1 0.00 0.00 0.00 36 1012.4
20260509194743 25 291 0.0 16.1 0.00 0.00 0.00 36 1012.5
20260509194243 25 296 3.2 9.7 0.00 0.00 0.00 36 1012.6
20260509193742 25 303 1.6 9.7 0.00 0.00 0.00 35 1012.5
20260509193242 24 305 0.0 9.7 0.00 0.00 0.00 34 1012.6
20260509192742 24 305 9.7 11.3 0.00 0.00 0.00 34 1012.6
20260509192242 23 306 0.0 11.3 0.00 0.00 0.00 34 1012.6
20260509191742 23 306 0.0 8.0 0.00 0.00 0.00 34 1012.8
20260509191242 23 306 4.8 8.0 0.00 0.00 0.00 33 1012.8
20260509190743 23 306 0.0 9.7 0.00 0.00 0.00 32 1013.0
20260509190242 22 306 3.2 9.7 0.00 0.00 0.00 32 1013.1
20260509185243 21 308 8.0 9.7 0.00 0.00 0.00 32 1013.0
20260509184742 21 301 4.8 9.7 0.00 0.00 0.00 31 1013.0
20260509184243 21 301 4.8 8.0 0.00 0.00 0.00 32 1013.1
20260509183742 20 130 0.0 9.7 0.00 0.00 0.00 32 1013.2
20260509182742 20 310 0.0 8.0 0.00 0.00 0.00 31 1013.3
20260509182242 20 313 0.0 8.0 0.00 0.00 0.00 31 1013.3
20260509181743 20 207 1.6 6.4 0.00 0.00 0.00 31 1013.3
20260509181242 20 207 0.0 9.7 0.00 0.00 0.00 31 1013.3
20260509180742 20 311 4.8 9.7 0.00 0.00 0.00 30 1013.5
20260509180242 19 271 8.0 9.7 0.00 0.00 0.00 30 1013.3
20260509175742 19 253 1.6 14.5 0.00 0.00 0.00 30 1013.3
20260509175242 19 306 0.0 14.5 0.00 0.00 0.00 29 1013.3
20260509174742 18 280 6.4 6.4 0.00 0.00 0.00 29 1013.3
20260509174242 18 280 1.6 11.3 0.00 0.00 0.00 28 1013.3
20260509173242 17 280 4.8 8.0 0.00 0.00 0.00 25 1013.3
20260509172242 16 280 1.6 4.8 0.00 0.00 0.00 24 1013.3
20260509171742 16 280 1.6 4.8 0.00 0.00 0.00 23 1013.3
20260509171242 16 280 0.0 1.6 0.00 0.00 0.00 21 1013.3
20260509170742 16 280 0.0 4.8 0.00 0.00 0.00 20 1013.4
20260509170242 15 280 0.0 4.8 0.00 0.00 0.00 19 1013.3
20260509165742 15 280 0.0 3.2 0.00 0.00 0.00 15 1013.3
20260509165242 15 280 0.0 3.2 0.00 0.00 0.00 14 1013.3
20260509164742 15 280 0.0 4.8 0.00 0.00 0.00 13 1013.3
20260509164242 14 280 0.0 4.8 0.00 0.00 0.00 13 1013.3
20260509163744 13 280 0.0 0.0 0.00 0.00 0.00 13 1013.4
20260509163242 13 280 0.0 0.0 0.00 0.00 0.00 12 1013.4
20260509162742 13 280 0.0 0.0 0.00 0.00 0.00 12 1013.4
20260509162242 13 280 0.0 0.0 0.00 0.00 0.00 12 1013.3
20260509161742 13 280 0.0 0.0 0.00 0.00 0.00 13 1013.3
20260509161242 13 280 0.0 0.0 0.00 0.00 0.00 13 1013.3
20260509160242 13 280 0.0 0.0 0.00 0.00 0.00 13 1013.3
20260509155742 13 280 0.0 0.0 0.00 0.00 0.00 13 1013.3
20260509155242 12 280 0.0 0.0 0.00 0.00 0.00 13 1013.3
20260509154742 12 280 0.0 0.0 0.00 0.00 0.00 13 1013.3
20260509154242 12 280 0.0 0.0 0.00 0.00 0.00 13 1013.4
20260509153742 12 280 0.0 0.0 0.00 0.00 0.00 13 1013.5
20260509153242 12 280 0.0 0.0 0.00 0.00 0.00 13 1013.5
20260509152742 12 280 0.0 0.0 0.00 0.00 0.00 13 1013.5
20260509152242 12 280 0.0 0.0 0.00 0.00 0.00 13 1013.5
20260509151742 12 280 0.0 0.0 0.00 0.00 0.00 13 1013.5
20260509150242 12 280 0.0 0.0 0.00 0.00 0.00 13 1013.3
20260509145742 12 280 0.0 0.0 0.00 0.00 0.00 13 1013.4
20260509145242 12 280 0.0 0.0 0.00 0.00 0.00 14 1013.4
20260509144742 12 280 0.0 0.0 0.00 0.00 0.00 14 1013.6
20260509143742 12 280 0.0 3.2 0.00 0.00 0.00 13 1013.4
20260509143241 12 280 0.0 4.8 0.00 0.00 0.00 13 1013.4
20260509142743 12 280 0.0 4.8 0.00 0.00 0.00 14 1013.4
20260509142241 12 280 0.0 0.0 0.00 0.00 0.00 14 1013.3
20260509141742 12 280 0.0 0.0 0.00 0.00 0.00 14 1013.2
20260509141242 12 280 0.0 0.0 0.00 0.00 0.00 14 1013.0
20260509140741 12 280 0.0 0.0 0.00 0.00 0.00 14 1013.0
20260509140242 12 280 0.0 0.0 0.00 0.00 0.00 14 1012.9
20260509135741 12 280 0.0 0.0 0.00 0.00 0.00 13 1013.0
20260509135241 12 280 0.0 0.0 0.00 0.00 0.00 13 1013.0
20260509134742 12 280 0.0 0.0 0.00 0.00 0.00 13 1013.1
20260509133741 12 280 0.0 0.0 0.00 0.00 0.00 13 1013.0
20260509133241 12 280 0.0 0.0 0.00 0.00 0.00 13 1013.0
20260509132742 12 280 0.0 0.0 0.00 0.00 0.00 13 1013.0
20260509132241 12 280 0.0 0.0 0.00 0.00 0.00 13 1013.1
20260509131742 12 280 0.0 0.0 0.00 0.00 0.00 13 1013.1
20260509131242 12 280 0.0 0.0 0.00 0.00 0.00 13 1013.1
20260509130742 12 280 0.0 0.0 0.00 0.00 0.00 13 1013.1
20260509130242 12 280 0.0 0.0 0.00 0.00 0.00 13 1013.2
20260509125742 12 280 0.0 0.0 0.00 0.00 0.00 13 1013.2
20260509125242 12 280 0.0 0.0 0.00 0.00 0.00 13 1013.1
20260509124242 12 280 0.0 0.0 0.00 0.00 0.00 13 1013.1
20260509123241 12 280 0.0 0.0 0.00 0.00 0.00 13 1013.0
20260509122741 12 280 0.0 0.0 0.00 0.00 0.00 13 1013.1
20260509122241 12 280 0.0 0.0 0.00 0.00 0.00 13 1013.1
20260509121241 12 280 0.0 0.0 0.00 0.00 0.00 13 1013.1
20260509120742 12 280 0.0 0.0 0.00 0.00 0.00 13 1013.1
20260509120242 12 280 0.0 0.0 0.00 0.00 0.00 13 1013.1
20260509114743 12 280 0.0 0.0 0.00 0.00 0.00 13 1013.2
20260509114242 12 280 0.0 0.0 0.00 0.00 0.00 13 1013.2
20260509113742 12 280 0.0 0.0 0.00 0.00 0.00 13 1013.3
20260509113242 12 280 0.0 0.0 0.00 0.00 0.00 13 1013.4
20260509112242 12 280 0.0 0.0 0.00 0.00 0.00 13 1013.3
20260509111743 12 280 0.0 0.0 0.00 0.00 0.00 13 1013.4
20260509110742 12 280 0.0 0.0 0.00 0.00 0.00 13 1013.5
20260509110241 12 280 0.0 0.0 0.00 0.00 0.00 13 1013.4
20260509105742 12 280 0.0 0.0 0.00 0.00 0.00 13 1013.6
20260509105242 12 280 0.0 0.0 0.00 0.00 0.00 13 1013.8
20260509104741 12 280 0.0 0.0 0.00 0.00 0.00 13 1013.7
20260509104241 12 280 0.0 0.0 0.00 0.00 0.00 13 1013.7
20260509103241 12 280 0.0 0.0 0.00 0.00 0.00 13 1013.8
20260509102741 12 280 0.0 0.0 0.00 0.00 0.00 13 1013.7
20260509101741 12 280 0.0 0.0 0.00 0.00 0.00 13 1013.7
20260509101241 12 280 0.0 0.0 0.00 0.00 0.00 13 1013.6
20260509100742 12 280 0.0 0.0 0.00 0.00 0.00 13 1013.6
20260509100242 12 280 0.0 0.0 0.00 0.00 0.00 13 1013.6